TGM annuale;;;;;;;;;;;;;;;TGM annuale;;;;;;;;;;;;;;;TGM annuale;;;;;;;;;;;;;
Tratta nr.43 SR325, Km 73.820, Prato(PO) (flussi ascendente/discendente);;;;;;;;;;;;;;;Tratta nr.43 SR325, Km 73.820, Prato(PO) (flusso ascendente);;;;;;;;;;;;;;;Tratta nr.43 SR325, Km 73.820, Prato(PO) (flusso discendente);;;;;;;;;;;;;
Anno;01 Motocicli;02 Auto e monovolume;03 Auto e monovolume con rimorchio;04 Furgoncini e camioncini;05 Camion;06 Autotreni;07 Autoarticolati;08 Autobus;09 Veicoli non classificati;Totale;Feriali;Festivi;Prefestivi;;Anno;01 Motocicli;02 Auto e monovolume;03 Auto e monovolume con rimorchio;04 Furgoncini e camioncini;05 Camion;06 Autotreni;07 Autoarticolati;08 Autobus;09 Veicoli non classificati;Totale;Feriali;Festivi;Prefestivi;;Anno;01 Motocicli;02 Auto e monovolume;03 Auto e monovolume con rimorchio;04 Furgoncini e camioncini;05 Camion;06 Autotreni;07 Autoarticolati;08 Autobus;09 Veicoli non classificati;Totale;Feriali;Festivi;Prefestivi
2017;365;16878;3;1241;258;108;27;15;0;18895;20216;14567;17814;;2017;156;8578;2;610;132;39;13;9;0;9538;10249;7249;8911;;2017;209;8300;1;632;126;69;14;6;0;9356;9967;7318;8903
;;;;;;;;;;;;;;;;;;;;;;;;;;;;;;;;;;;;;;;;;;;
Tabella flussi 2017;;;;;;;;;;;;;;;Tabella flussi 2017;;;;;;;;;;;;;;;Tabella flussi 2017;;;;;;;;;;;;;
Tratta nr.43 SR325, Km 73.820, Prato(PO) (flussi ascendente/discendente);;;;;;;;;;;;;;;Tratta nr.43 SR325, Km 73.820, Prato(PO) (flusso ascendente);;;;;;;;;;;;;;;Tratta nr.43 SR325, Km 73.820, Prato(PO) (flusso discendente);;;;;;;;;;;;;
;Traffico Totale;;;;;;;;;;Traffico Med.Orario 06:00 - 20:00;Traffico Ora di punta;;;;Traffico Totale;;;;;;;;;;Traffico Med.Orario 06:00 - 20:00;Traffico Ora di punta;;;;Traffico Totale;;;;;;;;;;Traffico Med.Orario 06:00 - 20:00;Traffico Ora di punta;
Giorno;01 Motocicli;02 Auto e monovolume;03 Auto e monovolume con rimorchio;04 Furgoncini e camioncini;05 Camion;06 Autotreni;07 Autoarticolati;08 Autobus;09 Veicoli non classificati;Totale;Totale;Ora di punta;Flusso totale ora di punta;;Giorno;01 Motocicli;02 Auto e monovolume;03 Auto e monovolume con rimorchio;04 Furgoncini e camioncini;05 Camion;06 Autotreni;07 Autoarticolati;08 Autobus;09 Veicoli non classificati;Totale;Totale;Ora di punta;Flusso totale ora di punta;;Giorno;01 Motocicli;02 Auto e monovolume;03 Auto e monovolume con rimorchio;04 Furgoncini e camioncini;05 Camion;06 Autotreni;07 Autoarticolati;08 Autobus;09 Veicoli non classificati;Totale;Totale;Ora di punta;Flusso totale ora di punta
01/01/2017;76;11026;0;334;8;59;5;4;0;11512;546;17;958;;01/01/2017;25;5561;0;164;2;23;2;1;0;5778;288;16;513;;01/01/2017;51;5465;0;170;6;36;3;3;0;5734;258;17;445
02/01/2017;119;14283;1;1026;226;60;14;12;0;15741;979;17;1178;;02/01/2017;48;7273;0;487;119;18;8;11;0;7964;509;8;782;;02/01/2017;71;7010;1;539;107;42;6;1;0;7777;470;18;783
03/01/2017;143;15443;1;1178;210;84;15;11;0;17085;1051;17;1299;;03/01/2017;57;7915;1;584;105;34;8;4;0;8708;552;8;833;;03/01/2017;86;7528;0;594;105;50;7;7;0;8377;499;18;853
04/01/2017;185;16103;1;1193;269;78;32;10;0;17871;1090;17;1411;;04/01/2017;85;8215;0;567;142;29;15;5;0;9058;570;8;734;;04/01/2017;100;7888;1;626;127;49;17;5;0;8813;520;18;822
05/01/2017;167;16499;1;1184;242;81;25;5;0;18204;1105;17;1309;;05/01/2017;71;8402;0;584;122;29;13;3;0;9224;576;8;825;;05/01/2017;96;8097;1;600;120;52;12;2;0;8980;529;18;843
06/01/2017;91;11490;0;405;54;75;4;3;0;12122;680;12;1052;;06/01/2017;38;5745;0;197;29;27;3;1;0;6040;357;16;590;;06/01/2017;53;5745;0;208;25;48;1;2;0;6082;324;12;569
07/01/2017;84;14007;2;583;83;85;8;4;0;14856;854;17;1149;;07/01/2017;32;7087;2;277;42;29;5;4;0;7478;446;15;644;;07/01/2017;52;6920;0;306;41;56;3;0;0;7378;408;12;611
08/01/2017;81;11521;1;406;28;57;2;6;0;12102;690;16;1150;;08/01/2017;29;5653;1;199;12;21;1;1;0;5917;358;16;668;;08/01/2017;52;5868;0;207;16;36;1;5;0;6185;332;12;525
09/01/2017;211;16187;1;1351;331;114;33;25;0;18253;1135;8;1574;;09/01/2017;94;8030;1;667;174;45;17;13;0;9041;581;8;1001;;09/01/2017;117;8157;0;684;157;69;16;12;0;9212;554;18;1021
10/01/2017;238;16844;3;1440;396;110;36;17;0;19084;1187;8;1535;;10/01/2017;78;8394;1;699;205;53;17;11;0;9458;607;8;959;;10/01/2017;160;8450;2;741;191;57;19;6;0;9626;581;18;922
11/01/2017;265;16925;3;1378;361;104;30;15;0;19081;1175;8;1472;;11/01/2017;100;8538;1;675;187;42;18;12;0;9573;609;8;914;;11/01/2017;165;8387;2;703;174;62;12;3;0;9508;566;18;879
12/01/2017;210;17643;2;1538;364;78;30;23;0;19888;1218;8;1654;;12/01/2017;72;8842;2;738;185;37;16;16;0;9908;627;8;1035;;12/01/2017;138;8801;0;800;179;41;14;7;0;9980;591;19;930
13/01/2017;184;17509;2;1445;325;95;47;16;0;19623;1191;8;1557;;13/01/2017;61;8920;2;706;161;35;23;10;0;9918;619;8;1009;;13/01/2017;123;8589;0;739;164;60;24;6;0;9705;572;19;872
14/01/2017;117;15628;0;739;101;96;8;10;0;16699;973;16;1276;;14/01/2017;47;7981;0;352;48;42;5;8;0;8483;509;16;714;;14/01/2017;70;7647;0;387;53;54;3;2;0;8216;464;12;676
15/01/2017;84;12551;4;413;24;53;1;4;0;13134;746;16;1227;;15/01/2017;35;6172;2;199;13;23;0;2;0;6446;391;16;721;;15/01/2017;49;6379;2;214;11;30;1;2;0;6688;354;18;545
16/01/2017;186;16844;5;1425;369;91;33;19;0;18972;1200;8;1565;;16/01/2017;69;8429;2;676;196;36;20;13;0;9441;611;7;1107;;16/01/2017;117;8415;3;749;173;55;13;6;0;9531;589;18;952
17/01/2017;141;14396;2;1239;346;95;29;19;0;16267;1007;8;1349;;17/01/2017;49;7322;1;591;177;39;13;14;0;8206;522;8;866;;17/01/2017;92;7074;1;648;169;56;16;5;0;8061;485;18;780
18/01/2017;163;17079;4;1433;398;75;30;13;0;19195;1185;8;1544;;18/01/2017;66;8712;3;708;208;32;14;7;0;9750;622;8;1039;;18/01/2017;97;8367;1;725;190;43;16;6;0;9445;563;18;898
19/01/2017;179;17605;4;1479;350;86;34;11;0;19748;1208;8;1563;;19/01/2017;62;8979;3;734;179;31;19;9;0;10016;635;8;1070;;19/01/2017;117;8626;1;745;171;55;15;2;0;9732;573;18;1008
20/01/2017;227;18104;4;1532;368;96;48;11;0;20390;1226;8;1668;;20/01/2017;82;9335;3;755;192;39;23;7;0;10436;645;8;1096;;20/01/2017;145;8769;1;777;176;57;25;4;0;9954;582;19;874
21/01/2017;165;16514;2;777;94;67;6;9;0;17634;1011;12;1287;;21/01/2017;60;8248;1;371;47;27;5;5;0;8764;523;16;715;;21/01/2017;105;8266;1;406;47;40;1;4;0;8870;489;12;777
22/01/2017;104;13196;9;425;28;62;4;2;0;13830;782;16;1226;;22/01/2017;29;6580;4;205;17;21;0;1;0;6857;414;16;729;;22/01/2017;75;6616;5;220;11;41;4;1;0;6973;368;18;576
23/01/2017;212;17458;4;1423;363;101;30;15;0;19606;1217;8;1669;;23/01/2017;85;8737;3;708;176;43;15;12;0;9779;628;8;1118;;23/01/2017;127;8721;1;715;187;58;15;3;0;9827;588;18;983
24/01/2017;209;17558;8;1526;334;89;27;8;0;19759;1220;8;1684;;24/01/2017;96;9005;3;753;177;30;15;7;0;10086;645;8;1099;;24/01/2017;113;8553;5;773;157;59;12;1;0;9673;575;18;970
25/01/2017;214;17853;2;1562;339;93;34;15;0;20112;1233;8;1601;;25/01/2017;85;9146;1;789;176;30;15;11;0;10253;652;8;1051;;25/01/2017;129;8707;1;773;163;63;19;4;0;9859;581;18;939
26/01/2017;238;17602;7;1444;331;129;34;11;0;19796;1203;8;1614;;26/01/2017;91;8983;4;729;173;44;20;8;0;10052;633;8;1065;;26/01/2017;147;8619;3;715;158;85;14;3;0;9744;570;18;937
27/01/2017;198;18368;4;1519;363;113;46;5;0;20616;1240;8;1584;;27/01/2017;78;9353;3;763;188;45;25;4;0;10459;649;8;1072;;27/01/2017;120;9015;1;756;175;68;21;1;0;10157;591;19;957
28/01/2017;188;16787;1;820;99;86;5;8;0;17994;1026;12;1226;;28/01/2017;69;8503;0;415;44;37;1;6;0;9075;536;16;715;;28/01/2017;119;8284;1;405;55;49;4;2;0;8919;490;19;719
29/01/2017;133;13617;0;408;21;56;3;7;0;14245;795;17;1201;;29/01/2017;65;6663;0;198;12;23;3;5;0;6969;414;17;685;;29/01/2017;68;6954;0;210;9;33;0;2;0;7276;381;18;656
30/01/2017;220;17148;0;1465;389;113;29;17;0;19381;1200;8;1781;;30/01/2017;74;8621;0;707;197;48;12;11;0;9670;618;8;1175;;30/01/2017;146;8527;0;758;192;65;17;6;0;9711;581;18;1003
31/01/2017;154;17444;3;1473;375;84;26;12;0;19571;1204;8;1626;;31/01/2017;55;8918;3;711;194;26;14;8;0;9929;631;8;1083;;31/01/2017;99;8526;0;762;181;58;12;4;0;9642;573;19;906
01/02/2017;171;18015;1;1486;360;79;26;10;0;20148;1227;8;1624;;01/02/2017;73;9092;0;734;189;26;13;8;0;10135;643;8;1075;;01/02/2017;98;8923;1;752;171;53;13;2;0;10013;584;18;991
02/02/2017;132;17857;0;1500;346;102;32;13;0;19982;1215;8;1602;;02/02/2017;61;8950;0;729;174;42;14;10;0;9980;630;8;1033;;02/02/2017;71;8907;0;771;172;60;18;3;0;10002;584;18;917
03/02/2017;150;18623;2;1548;369;92;39;15;0;20838;1249;8;1606;;03/02/2017;69;9509;1;733;185;32;23;12;0;10564;651;7;1023;;03/02/2017;81;9114;1;815;184;60;16;3;0;10274;598;19;987
04/02/2017;67;16360;1;797;101;69;10;5;0;17410;996;12;1291;;04/02/2017;27;8246;0;367;48;28;5;3;0;8724;514;10;708;;04/02/2017;40;8114;1;430;53;41;5;2;0;8686;482;12;738
05/02/2017;61;12387;0;428;26;44;1;4;0;12951;709;12;1061;;05/02/2017;18;6050;0;192;14;19;1;0;0;6294;368;15;652;;05/02/2017;43;6337;0;236;12;25;0;4;0;6657;341;12;604
06/02/2017;127;17082;2;1339;338;98;44;8;0;19038;1177;8;1646;;06/02/2017;59;8720;0;672;168;36;21;6;0;9682;618;8;1087;;06/02/2017;68;8362;2;667;170;62;23;2;0;9356;559;19;1000
07/02/2017;271;17173;1;1427;400;117;27;13;0;19429;1186;8;1642;;07/02/2017;103;8841;0;709;199;42;16;9;0;9919;628;8;1034;;07/02/2017;168;8332;1;718;201;75;11;4;0;9510;558;19;903
08/02/2017;198;18011;5;1552;359;85;39;18;0;20267;1240;8;1692;;08/02/2017;77;9286;2;755;188;25;19;11;0;10363;659;8;1120;;08/02/2017;121;8725;3;797;171;60;20;7;0;9904;581;19;942
09/02/2017;214;17805;4;1541;396;88;28;11;0;20087;1223;8;1578;;09/02/2017;74;9193;1;772;205;29;16;11;0;10301;651;8;1052;;09/02/2017;140;8612;3;769;191;59;12;0;0;9786;572;18;912
10/02/2017;226;18442;10;1519;356;90;47;7;0;20697;1240;8;1725;;10/02/2017;81;9544;6;779;175;32;25;7;0;10649;661;8;1138;;10/02/2017;145;8898;4;740;181;58;22;0;0;10048;580;18;854
11/02/2017;;;;;;;;;;;;;;;11/02/2017;;;;;;;;;;;;;;;11/02/2017;;;;;;;;;;;;;
12/02/2017;;;;;;;;;;;;;;;12/02/2017;;;;;;;;;;;;;;;12/02/2017;;;;;;;;;;;;;
13/02/2017;286;18387;2;1427;371;88;45;8;0;20614;1279;8;1686;;13/02/2017;112;9409;1;718;188;32;25;8;0;10493;672;8;1135;;13/02/2017;174;8978;1;709;183;56;20;0;0;10121;608;18;1008
14/02/2017;293;18508;1;1462;373;107;36;13;0;20793;1261;8;1685;;14/02/2017;116;9579;1;751;192;31;19;8;0;10697;672;8;1161;;14/02/2017;177;8929;0;711;181;76;17;5;0;10096;588;18;983
15/02/2017;269;18453;2;1394;374;102;37;7;0;20638;1237;8;1698;;15/02/2017;135;9341;1;712;197;40;18;5;0;10449;653;8;1137;;15/02/2017;134;9112;1;682;177;62;19;2;0;10189;584;18;966
16/02/2017;240;18456;1;1550;382;111;39;13;0;20792;1270;8;1657;;16/02/2017;97;9302;0;795;195;43;16;9;0;10457;661;7;1044;;16/02/2017;143;9154;1;755;187;68;23;4;0;10335;609;19;1038
17/02/2017;167;18474;4;1578;382;92;41;9;0;20747;1242;8;1598;;17/02/2017;71;9431;2;759;196;31;21;7;0;10518;651;7;1024;;17/02/2017;96;9043;2;819;186;61;20;2;0;10229;591;19;921
18/02/2017;227;16932;3;831;85;96;8;7;0;18189;1039;16;1286;;18/02/2017;103;8646;1;399;45;30;4;2;0;9230;550;16;729;;18/02/2017;124;8286;2;432;40;66;4;5;0;8959;488;19;650
19/02/2017;164;14831;2;473;27;77;3;7;0;15584;900;17;1430;;19/02/2017;80;7297;1;228;12;23;1;6;0;7648;471;17;902;;19/02/2017;84;7534;1;245;15;54;2;1;0;7936;429;12;627
20/02/2017;258;17701;2;1475;382;109;38;9;0;19974;1236;8;1659;;20/02/2017;112;8868;1;712;192;44;19;6;0;9954;635;8;1081;;20/02/2017;146;8833;1;763;190;65;19;3;0;10020;600;18;1024
21/02/2017;238;18069;1;1467;392;100;34;16;0;20317;1253;8;1770;;21/02/2017;97;9139;1;749;197;33;17;13;0;10246;653;8;1169;;21/02/2017;141;8930;0;718;195;67;17;3;0;10071;600;18;998
22/02/2017;245;17900;0;1491;350;79;32;11;0;20108;1220;8;1606;;22/02/2017;100;9044;0;743;174;25;17;8;0;10111;641;8;1058;;22/02/2017;145;8856;0;748;176;54;15;3;0;9997;579;19;1009
23/02/2017;210;18175;4;1471;354;101;41;9;0;20365;1241;8;1696;;23/02/2017;83;9177;2;729;178;34;18;7;0;10228;649;8;1090;;23/02/2017;127;8998;2;742;176;67;23;2;0;10137;592;19;1019
24/02/2017;97;18069;3;1444;335;112;38;10;0;20108;1197;8;1544;;24/02/2017;38;9181;1;715;172;52;19;7;0;10185;627;8;1030;;24/02/2017;59;8888;2;729;163;60;19;3;0;9923;570;19;1011
25/02/2017;181;17070;2;827;82;95;9;9;0;18275;1045;12;1305;;25/02/2017;78;8877;1;399;40;22;4;7;0;9428;556;16;746;;25/02/2017;103;8193;1;428;42;73;5;2;0;8847;489;19;719
26/02/2017;241;14241;2;484;23;69;1;4;0;15065;853;18;1316;;26/02/2017;120;7081;1;239;13;17;0;3;0;7474;450;17;764;;26/02/2017;121;7160;1;245;10;52;1;1;0;7591;403;18;629
27/02/2017;233;17316;2;1400;337;98;44;10;0;19440;1196;8;1624;;27/02/2017;101;8678;0;679;170;43;22;9;0;9702;617;7;1076;;27/02/2017;132;8638;2;721;167;55;22;1;0;9738;579;19;956
28/02/2017;192;17523;1;1532;370;96;26;14;0;19754;1215;8;1614;;28/02/2017;87;8865;0;765;192;34;13;9;0;9965;637;8;1092;;28/02/2017;105;8658;1;767;178;62;13;5;0;9789;579;19;1003
01/03/2017;250;18112;0;1512;346;110;41;4;0;20375;1228;8;1675;;01/03/2017;111;9220;0;771;179;42;22;3;0;10348;649;8;1121;;01/03/2017;139;8892;0;741;167;68;19;1;0;10027;579;19;978
02/03/2017;167;18262;2;1476;367;91;37;14;0;20416;1236;8;1600;;02/03/2017;68;9310;1;744;178;29;17;13;0;10360;655;7;1092;;02/03/2017;99;8952;1;732;189;62;20;1;0;10056;581;19;902
03/03/2017;251;18190;11;1543;335;110;45;12;0;20497;1224;8;1715;;03/03/2017;103;9457;5;768;177;27;23;10;0;10570;652;8;1111;;03/03/2017;148;8733;6;775;158;83;22;2;0;9927;573;18;813
04/03/2017;117;16314;2;756;99;66;7;6;0;17367;985;10;1163;;04/03/2017;36;8306;2;367;53;20;4;3;0;8791;525;10;686;;04/03/2017;81;8008;0;389;46;46;3;3;0;8576;459;19;616
05/03/2017;87;13708;0;437;27;50;2;9;0;14320;804;17;1312;;05/03/2017;32;6770;0;196;14;12;0;5;0;7029;419;17;813;;05/03/2017;55;6938;0;241;13;38;2;4;0;7291;384;12;628
06/03/2017;149;17251;3;1443;361;92;43;10;0;19352;1202;8;1692;;06/03/2017;53;8891;2;734;177;32;22;9;0;9920;637;7;1182;;06/03/2017;96;8360;1;709;184;60;21;1;0;9432;566;18;880
07/03/2017;239;17852;6;1550;370;118;51;11;0;20197;1233;18;1557;;07/03/2017;100;8908;3;767;186;45;29;8;0;10046;640;7;1026;;07/03/2017;139;8944;3;783;184;73;22;3;0;10151;593;19;1037
08/03/2017;291;18254;2;1506;366;127;32;9;0;20587;1237;8;1668;;08/03/2017;129;9416;2;760;186;45;17;6;0;10561;662;8;1092;;08/03/2017;162;8838;0;746;180;82;15;3;0;10026;575;18;904
09/03/2017;335;18515;6;1531;401;114;35;12;0;20949;1257;8;1741;;09/03/2017;156;9350;2;781;199;30;18;9;0;10545;662;8;1134;;09/03/2017;179;9165;4;750;202;84;17;3;0;10404;596;19;1010
10/03/2017;342;18289;2;1599;363;118;49;16;0;20778;1241;8;1614;;10/03/2017;153;9334;1;795;179;47;26;10;0;10545;651;8;993;;10/03/2017;189;8955;1;804;184;71;23;6;0;10233;590;18;931
11/03/2017;331;16957;8;879;102;101;9;8;0;18395;1053;19;1311;;11/03/2017;155;8554;4;448;53;34;5;6;0;9259;552;17;706;;11/03/2017;176;8403;4;431;49;67;4;2;0;9136;501;19;741
12/03/2017;244;14544;2;465;24;58;1;3;0;15341;874;17;1515;;12/03/2017;127;7252;1;227;14;17;0;1;0;7639;466;17;934;;12/03/2017;117;7292;1;238;10;41;1;2;0;7702;408;18;650
13/03/2017;362;17744;5;1514;354;102;48;21;0;20150;1244;8;1732;;13/03/2017;125;9122;4;755;185;36;26;15;0;10268;655;8;1164;;13/03/2017;237;8622;1;759;169;66;22;6;0;9882;589;19;963
14/03/2017;342;17697;5;1559;367;99;52;16;0;20137;1230;8;1691;;14/03/2017;149;8998;2;777;182;31;24;13;0;10176;647;8;1149;;14/03/2017;193;8699;3;782;185;68;28;3;0;9961;583;18;1015
15/03/2017;340;18016;6;1614;396;108;39;16;0;20535;1242;8;1714;;15/03/2017;135;9233;4;803;207;41;22;12;0;10457;658;8;1109;;15/03/2017;205;8783;2;811;189;67;17;4;0;10078;584;19;993
16/03/2017;349;17969;4;1690;399;133;28;13;0;20585;1243;8;1673;;16/03/2017;155;9147;1;843;203;48;13;9;0;10419;657;8;1116;;16/03/2017;194;8822;3;847;196;85;15;4;0;10166;585;19;938
17/03/2017;329;18350;8;1617;363;117;31;11;0;20826;1235;8;1611;;17/03/2017;160;9402;5;823;182;43;16;8;0;10639;652;8;1056;;17/03/2017;169;8948;3;794;181;74;15;3;0;10187;582;18;982
18/03/2017;223;17167;3;829;106;77;6;8;0;18419;1056;12;1267;;18/03/2017;91;8638;1;408;45;28;2;8;0;9221;546;9;690;;18/03/2017;132;8529;2;421;61;49;4;0;0;9198;509;19;720
19/03/2017;249;16753;10;579;33;72;1;4;0;17701;1018;18;1539;;19/03/2017;108;8485;4;273;19;18;1;2;0;8910;533;18;997;;19/03/2017;141;8268;6;306;14;54;0;2;0;8791;485;12;777
20/03/2017;344;17968;3;1528;435;110;31;16;0;20435;1262;8;1670;;20/03/2017;155;9139;1;760;223;41;15;6;0;10340;660;8;1129;;20/03/2017;189;8829;2;768;212;69;16;10;0;10095;601;18;1040
21/03/2017;335;18261;3;1617;376;91;32;15;0;20730;1270;8;1730;;21/03/2017;147;9162;2;783;197;31;15;9;0;10346;658;8;1092;;21/03/2017;188;9099;1;834;179;60;17;6;0;10384;612;18;973
22/03/2017;249;18038;3;1555;391;104;38;8;0;20386;1238;8;1761;;22/03/2017;127;9192;2;760;198;34;20;6;0;10339;649;8;1097;;22/03/2017;122;8846;1;795;193;70;18;2;0;10047;588;19;954
23/03/2017;244;18454;2;1614;417;93;22;14;0;20860;1261;8;1703;;23/03/2017;108;9451;1;810;208;29;12;11;0;10630;668;8;1152;;23/03/2017;136;9003;1;804;209;64;10;3;0;10230;592;18;937
24/03/2017;363;18991;4;1556;364;128;47;21;0;21474;1280;8;1795;;24/03/2017;156;9766;2;776;181;38;24;16;0;10959;672;8;1133;;24/03/2017;207;9225;2;780;183;90;23;5;0;10515;608;19;992
25/03/2017;329;17508;3;840;103;95;8;9;0;18895;1073;19;1312;;25/03/2017;186;8851;2;413;54;29;4;4;0;9543;564;17;690;;25/03/2017;143;8657;1;427;49;66;4;5;0;9352;509;12;717
26/03/2017;202;14685;3;429;32;79;5;4;0;15439;865;17;1302;;26/03/2017;88;7276;1;218;16;23;3;2;0;7627;459;17;836;;26/03/2017;114;7409;2;211;16;56;2;2;0;7812;405;19;712
27/03/2017;278;17707;2;1464;327;118;53;14;0;19963;1216;8;1800;;27/03/2017;147;9095;1;765;172;37;25;10;0;10252;649;8;1198;;27/03/2017;131;8612;1;699;155;81;28;4;0;9711;567;18;903
28/03/2017;312;17912;1;1510;384;122;30;11;0;20282;1225;8;1708;;28/03/2017;162;9159;1;756;206;33;17;8;0;10342;651;8;1093;;28/03/2017;150;8753;0;754;178;89;13;3;0;9940;573;19;1020
29/03/2017;343;17703;4;1532;363;138;44;19;0;20146;1206;8;1710;;29/03/2017;160;9084;2;807;191;34;20;12;0;10310;644;8;1150;;29/03/2017;183;8619;2;725;172;104;24;7;0;9836;562;19;979
30/03/2017;407;18058;3;1742;341;139;44;10;0;20744;1238;8;1695;;30/03/2017;177;9276;1;854;175;42;21;7;0;10553;659;8;1116;;30/03/2017;230;8782;2;888;166;97;23;3;0;10191;579;18;869
31/03/2017;420;18550;4;1706;363;131;35;11;0;21220;1246;8;1621;;31/03/2017;190;9463;1;852;180;43;18;7;0;10754;651;7;1056;;31/03/2017;230;9087;3;854;183;88;17;4;0;10466;594;19;956
01/04/2017;384;17764;6;921;113;100;7;15;0;19310;1093;19;1385;;01/04/2017;186;8956;3;434;55;27;3;10;0;9674;565;17;692;;01/04/2017;198;8808;3;487;58;73;4;5;0;9636;528;19;756
02/04/2017;215;14343;4;544;23;71;0;13;0;15213;856;17;1288;;02/04/2017;107;7114;2;282;13;22;0;8;0;7548;450;17;758;;02/04/2017;108;7229;2;262;10;49;0;5;0;7665;406;12;754
03/04/2017;350;17951;3;1541;411;123;34;23;0;20436;1251;8;1715;;03/04/2017;176;9168;2;769;187;50;14;13;0;10379;660;7;1156;;03/04/2017;174;8783;1;772;224;73;20;10;0;10057;591;19;1004
04/04/2017;356;18049;2;1641;393;99;45;15;0;20600;1255;8;1607;;04/04/2017;169;9102;2;806;205;46;21;10;0;10361;656;7;1054;;04/04/2017;187;8947;0;835;188;53;24;5;0;10239;600;18;1009
05/04/2017;292;18627;3;1574;372;117;37;11;0;21033;1273;8;1763;;05/04/2017;151;9544;2;780;189;31;16;10;0;10723;672;8;1156;;05/04/2017;141;9083;1;794;183;86;21;1;0;10310;601;19;994
06/04/2017;304;18636;0;1701;363;118;59;11;0;21192;1277;8;1824;;06/04/2017;146;9597;0;883;177;37;27;8;0;10875;681;8;1149;;06/04/2017;158;9039;0;818;186;81;32;3;0;10317;597;19;976
07/04/2017;396;19179;8;1676;409;138;46;25;0;21877;1292;8;1752;;07/04/2017;203;9802;5;852;214;46;27;12;0;11161;681;8;1111;;07/04/2017;193;9377;3;824;195;92;19;13;0;10716;611;19;972
08/04/2017;427;17658;3;871;130;99;9;8;0;19205;1094;19;1433;;08/04/2017;224;8871;2;439;60;33;2;6;0;9637;569;9;718;;08/04/2017;203;8787;1;432;70;66;7;2;0;9568;524;19;755
09/04/2017;401;15153;4;478;30;104;3;2;0;16175;907;18;1440;;09/04/2017;213;7526;1;216;14;35;1;2;0;8008;480;18;787;;09/04/2017;188;7627;3;262;16;69;2;0;0;8167;427;18;653
10/04/2017;390;18121;3;1560;369;132;45;14;0;20634;1258;8;1791;;10/04/2017;213;9279;3;791;182;44;18;8;0;10538;669;8;1186;;10/04/2017;177;8842;0;769;187;88;27;6;0;10096;589;19;938
11/04/2017;375;18497;5;1652;405;116;32;10;0;21092;1283;8;1785;;11/04/2017;155;9465;3;827;213;37;19;3;0;10722;679;8;1159;;11/04/2017;220;9032;2;825;192;79;13;7;0;10370;604;19;1011
12/04/2017;423;18805;6;1716;386;121;57;26;0;21540;1286;8;1789;;12/04/2017;209;9658;3;839;190;37;29;21;0;10986;680;8;1203;;12/04/2017;214;9147;3;877;196;84;28;5;0;10554;606;18;953
13/04/2017;438;18868;4;1625;396;98;48;11;0;21488;1267;8;1676;;13/04/2017;193;9615;2;799;209;38;26;9;0;10891;675;8;1134;;13/04/2017;245;9253;2;826;187;60;22;2;0;10597;592;19;923
14/04/2017;495;18800;8;1647;284;124;34;10;0;21402;1259;8;1623;;14/04/2017;223;9672;4;834;142;41;16;7;0;10939;664;8;1084;;14/04/2017;272;9128;4;813;142;83;18;3;0;10463;595;19;865
15/04/2017;299;15541;6;726;98;65;3;7;0;16745;965;11;1211;;15/04/2017;133;7773;4;354;50;27;2;6;0;8349;498;10;654;;15/04/2017;166;7768;2;372;48;38;1;1;0;8396;467;19;647
16/04/2017;230;13549;1;346;7;73;1;2;0;14209;788;12;1530;;16/04/2017;112;6796;0;168;4;25;0;0;0;7105;407;18;727;;16/04/2017;118;6753;1;178;3;48;1;2;0;7104;381;12;939
17/04/2017;324;14625;2;455;49;83;3;3;0;15544;898;18;1485;;17/04/2017;152;7373;1;201;21;28;1;3;0;7780;464;18;957;;17/04/2017;172;7252;1;254;28;55;2;0;0;7764;434;11;751
18/04/2017;309;17853;5;1501;399;80;27;7;0;20181;1240;8;1665;;18/04/2017;123;9092;1;754;200;26;12;7;0;10215;646;8;1114;;18/04/2017;186;8761;4;747;199;54;15;0;0;9966;594;18;999
19/04/2017;329;18096;2;1564;352;108;50;13;0;20514;1247;8;1645;;19/04/2017;132;9202;2;757;184;40;24;8;0;10349;653;8;1105;;19/04/2017;197;8894;0;807;168;68;26;5;0;10165;594;18;1012
20/04/2017;365;18305;7;1692;401;118;46;24;0;20958;1262;8;1685;;20/04/2017;140;9519;3;816;206;42;22;17;0;10765;673;8;1168;;20/04/2017;225;8786;4;876;195;76;24;7;0;10193;588;18;943
21/04/2017;395;19169;4;1757;400;116;48;12;0;21901;1310;8;1716;;21/04/2017;176;9937;2;871;208;46;23;8;0;11271;695;7;1159;;21/04/2017;219;9232;2;886;192;70;25;4;0;10630;615;19;952
22/04/2017;303;17251;7;921;118;76;8;6;0;18690;1067;18;1354;;22/04/2017;138;8742;4;460;60;33;2;3;0;9442;560;18;682;;22/04/2017;165;8509;3;461;58;43;6;3;0;9248;507;19;748
23/04/2017;196;13666;2;451;32;39;2;2;0;14390;793;18;1201;;23/04/2017;92;6785;1;202;14;15;1;1;0;7111;415;18;627;;23/04/2017;104;6881;1;249;18;24;1;1;0;7279;377;19;588
24/04/2017;394;16036;1;1232;216;87;15;19;0;18000;1077;18;1379;;24/04/2017;186;8213;1;606;105;33;6;12;0;9162;563;8;794;;24/04/2017;208;7823;0;626;111;54;9;7;0;8838;513;18;814
25/04/2017;246;13850;1;488;53;74;2;6;0;14720;837;18;1305;;25/04/2017;113;6958;1;244;26;19;1;4;0;7366;437;18;699;;25/04/2017;133;6892;0;244;27;55;1;2;0;7354;400;19;611
26/04/2017;206;18840;1;1690;401;87;44;13;0;21282;1299;8;1803;;26/04/2017;73;9588;0;854;208;20;24;7;0;10774;681;8;1177;;26/04/2017;133;9252;1;836;193;67;20;6;0;10508;618;19;1132
27/04/2017;259;19257;2;1731;386;67;43;14;0;21759;1318;8;1688;;27/04/2017;89;9716;1;813;196;22;18;12;0;10867;686;7;1110;;27/04/2017;170;9541;1;918;190;45;25;2;0;10892;631;18;1017
28/04/2017;316;19297;2;1636;395;95;41;18;0;21800;1295;8;1723;;28/04/2017;115;10038;1;834;201;33;23;13;0;11258;694;8;1171;;28/04/2017;201;9259;1;802;194;62;18;5;0;10542;602;19;975
29/04/2017;362;17053;0;937;108;74;13;9;0;18556;1058;12;1295;;29/04/2017;170;8622;0;444;49;28;6;6;0;9325;554;17;685;;29/04/2017;192;8431;0;493;59;46;7;3;0;9231;504;19;716
30/04/2017;308;13827;2;459;22;81;3;6;0;14708;806;18;1382;;30/04/2017;141;6874;1;222;8;29;1;5;0;7281;418;18;810;;30/04/2017;167;6953;1;237;14;52;2;1;0;7427;388;19;619
01/05/2017;245;13067;0;482;36;59;5;2;0;13896;789;12;1108;;01/05/2017;110;6572;0;221;15;17;3;2;0;6940;411;16;595;;01/05/2017;135;6495;0;261;21;42;2;0;0;6956;378;12;668
02/05/2017;339;18312;3;1627;402;101;33;15;0;20832;1265;8;1756;;02/05/2017;128;9286;2;788;200;43;17;12;0;10476;658;8;1155;;02/05/2017;211;9026;1;839;202;58;16;3;0;10356;607;19;1044
03/05/2017;327;19033;7;1723;388;99;50;18;0;21645;1316;8;1799;;03/05/2017;133;9676;4;814;199;31;22;14;0;10893;687;8;1183;;03/05/2017;194;9357;3;909;189;68;28;4;0;10752;629;19;1103
04/05/2017;343;18768;1;1761;404;116;47;13;0;21453;1300;8;1785;;04/05/2017;114;9657;1;875;214;37;23;7;0;10928;688;8;1168;;04/05/2017;229;9111;0;886;190;79;24;6;0;10525;611;18;989